When you browse on this site, cookies collect data to enhance your experience and personalize the content and advertising you see.
Visit our Privacy Policy to learn more. By continuing to use the site, you agree to this use of cookies and data.
  • In Sweden
  • List of Countries
  • For 7 days
  • Water Temperature
  • Weather Map
  • Weather Widgets
  • user-avatar
    Login

    Hourly Weather Suvorovo

    Today, 16 September, Monday

    Time Temperature Precipitation Wind Pressure Humidity
    00:00 +9°C° 0 mm 3 mps 746 mmHg 74%
    01:00 +8°C° 0 mm 4 mps 746 mmHg 73%
    02:00 +8°C° 0 mm 4 mps 745 mmHg 72%
    03:00 +8°C° 0 mm 5 mps 745 mmHg 71%
    04:00 +8°C° 0.3 mm 5 mps 744 mmHg 74%
    05:00 +8°C° 0.3 mm 5 mps 744 mmHg 78%
    06:00 +8°C° 0.3 mm 6 mps 743 mmHg 81%
    07:00 +9°C° 0.4 mm 6 mps 743 mmHg 79%
    08:00 +9°C° 0.4 mm 6 mps 742 mmHg 78%
    09:00 +9°C° 0.4 mm 6 mps 741 mmHg 76%
    10:00 +10°C° 0.1 mm 6 mps 741 mmHg 74%
    11:00 +11°C° 0.1 mm 6 mps 740 mmHg 72%
    12:00 +13°C° 0.1 mm 6 mps 740 mmHg 70%
    13:00 +13°C° 0 mm 6 mps 739 mmHg 68%
    14:00 +13°C° 0 mm 6 mps 739 mmHg 66%
    15:00 +14°C° 0 mm 5 mps 739 mmHg 65%
    16:00 +13°C° 0 mm 5 mps 739 mmHg 67%
    17:00 +13°C° 0 mm 5 mps 738 mmHg 69%
    18:00 +11°C° 0 mm 6 mps 738 mmHg 71%
    19:00 +12°C° 0 mm 5 mps 739 mmHg 73%
    20:00 +12°C° 0 mm 5 mps 739 mmHg 75%
    21:00 +12°C° 0 mm 5 mps 739 mmHg 76%
    22:00 +10°C° 0 mm 5 mps 739 mmHg 79%
    23:00 +11°C° 0 mm 4 mps 739 mmHg 83%

    Tomorrow, 17 September, Tuesday

    Time Temperature Precipitation Wind Pressure Humidity
    00:00 +10°C° 0 mm 4 mps 738 mmHg 86%
    01:00 +10°C° 0 mm 4 mps 739 mmHg 87%
    02:00 +10°C° 0 mm 4 mps 739 mmHg 88%
    03:00 +8°C° 0 mm 4 mps 739 mmHg 89%
    04:00 +8°C° 0 mm 4 mps 739 mmHg 89%
    05:00 +8°C° 0 mm 4 mps 738 mmHg 89%
    06:00 +8°C° 0 mm 4 mps 738 mmHg 89%
    07:00 +9°C° 0 mm 5 mps 738 mmHg 81%
    08:00 +12°C° 0 mm 5 mps 738 mmHg 74%
    09:00 +13°C° 0 mm 6 mps 738 mmHg 67%
    10:00 +14°C° 0.1 mm 6 mps 738 mmHg 62%
    11:00 +15°C° 0.1 mm 7 mps 738 mmHg 57%
    12:00 +15°C° 0.1 mm 7 mps 738 mmHg 52%
    13:00 +15°C° 0.1 mm 7 mps 738 mmHg 52%
    14:00 +15°C° 0.1 mm 7 mps 737 mmHg 52%
    15:00 +15°C° 0.1 mm 7 mps 737 mmHg 52%
    16:00 +14°C° 0 mm 6 mps 737 mmHg 55%
    17:00 +13°C° 0 mm 5 mps 737 mmHg 58%
    18:00 +12°C° 0 mm 4 mps 737 mmHg 60%
    19:00 +11°C° 0 mm 4 mps 738 mmHg 64%
    20:00 +10°C° 0 mm 3 mps 738 mmHg 67%
    21:00 +10°C° 0 mm 3 mps 738 mmHg 70%
    22:00 +9°C° 0 mm 3 mps 738 mmHg 71%
    23:00 +9°C° 0 mm 3 mps 738 mmHg 72%

    Day after tomorrow, 18 September, Wednesday

    Time Temperature Precipitation Wind Pressure Humidity
    00:00 +9°C° 0 mm 3 mps 738 mmHg 72%
    01:00 +8°C° 0 mm 3 mps 738 mmHg 75%
    02:00 +8°C° 0 mm 3 mps 738 mmHg 77%
    03:00 +8°C° 0 mm 3 mps 738 mmHg 79%
    04:00 +8°C° 0 mm 3 mps 738 mmHg 79%
    05:00 +8°C° 0 mm 3 mps 738 mmHg 79%
    06:00 +8°C° 0 mm 3 mps 738 mmHg 79%
    07:00 +8°C° 0.1 mm 4 mps 738 mmHg 75%
    08:00 +10°C° 0.1 mm 4 mps 738 mmHg 71%
    09:00 +12°C° 0.1 mm 5 mps 738 mmHg 67%
    10:00 +12°C° 0.3 mm 5 mps 738 mmHg 67%
    11:00 +12°C° 0.3 mm 5 mps 737 mmHg 67%
    12:00 +13°C° 0.3 mm 6 mps 737 mmHg 66%
    13:00 +13°C° 0.2 mm 5 mps 737 mmHg 66%
    14:00 +13°C° 0.2 mm 4 mps 737 mmHg 65%
    15:00 +13°C° 0.2 mm 4 mps 737 mmHg 64%
    16:00 +12°C° 0.2 mm 3 mps 736 mmHg 67%
    17:00 +12°C° 0.2 mm 3 mps 736 mmHg 69%
    18:00 +12°C° 0.2 mm 2 mps 736 mmHg 71%
    19:00 +12°C° 0.2 mm 2 mps 735 mmHg 74%
    20:00 +10°C° 0.2 mm 2 mps 735 mmHg 77%
    21:00 +10°C° 0.2 mm 2 mps 734 mmHg 80%
    22:00 +10°C° 0.6 mm 2 mps 734 mmHg 83%
    23:00 +9°C° 0.6 mm 2 mps 733 mmHg 86%

    19 September, Thursday

    Time Temperature Precipitation Wind Pressure Humidity
    00:00 +10°C° 0.6 mm 1 mps 732 mmHg 89%
    01:00 +9°C° 2 mm 2 mps 732 mmHg 90%
    02:00 +8°C° 2 mm 3 mps 732 mmHg 91%
    03:00 +8°C° 2 mm 3 mps 732 mmHg 92%
    04:00 +7°C° 1.5 mm 4 mps 733 mmHg 92%
    05:00 +7°C° 1.5 mm 4 mps 733 mmHg 91%
    06:00 +7°C° 1.5 mm 5 mps 734 mmHg 91%
    07:00 +8°C° 0.6 mm 5 mps 735 mmHg 89%
    08:00 +8°C° 0.6 mm 5 mps 736 mmHg 86%
    09:00 +8°C° 0.6 mm 5 mps 737 mmHg 84%
    10:00 +8°C° 0.1 mm 5 mps 738 mmHg 83%
    11:00 +8°C° 0.1 mm 6 mps 739 mmHg 82%
    12:00 +9°C° 0.1 mm 6 mps 740 mmHg 81%
    13:00 +9°C° 0.2 mm 6 mps 740 mmHg 79%
    14:00 +9°C° 0.2 mm 6 mps 741 mmHg 76%
    15:00 +9°C° 0.2 mm 6 mps 742 mmHg 74%
    16:00 +9°C° 0.5 mm 5 mps 742 mmHg 77%
    17:00 +8°C° 0.5 mm 5 mps 743 mmHg 79%
    18:00 +8°C° 0.5 mm 4 mps 743 mmHg 82%
    19:00 +8°C° 0.1 mm 3 mps 744 mmHg 84%
    20:00 +7°C° 0.1 mm 3 mps 744 mmHg 86%
    21:00 +7°C° 0.1 mm 2 mps 744 mmHg 88%
    22:00 +6°C° 0 mm 2 mps 745 mmHg 88%
    23:00 +6°C° 0 mm 2 mps 745 mmHg 88%

    20 September, Friday

    Time Temperature Precipitation Wind Pressure Humidity
    00:00 +5°C° 0 mm 2 mps 745 mmHg 88%
    01:00 +6°C° 0 mm 1 mps 745 mmHg 88%
    02:00 +6°C° 0 mm 1 mps 745 mmHg 88%
    03:00 +5°C° 0 mm 1 mps 745 mmHg 89%
    04:00 +5°C° 0 mm 1 mps 745 mmHg 90%
    05:00 +5°C° 0 mm 1 mps 746 mmHg 91%
    06:00 +5°C° 0 mm 1 mps 746 mmHg 92%
    07:00 +6°C° 0 mm 1 mps 746 mmHg 88%
    08:00 +7°C° 0 mm 1 mps 746 mmHg 83%
    09:00 +8°C° 0 mm 2 mps 746 mmHg 79%
    10:00 +8°C° 0.2 mm 1 mps 746 mmHg 80%
    11:00 +8°C° 0.2 mm 1 mps 746 mmHg 82%
    12:00 +8°C° 0.2 mm 1 mps 746 mmHg 83%
    13:00 +8°C° 0.1 mm 1 mps 746 mmHg 83%
    14:00 +8°C° 0.1 mm 1 mps 746 mmHg 83%
    15:00 +7°C° 0.1 mm 2 mps 746 mmHg 84%
    16:00 +8°C° 0 mm 1 mps 746 mmHg 84%
    17:00 +8°C° 0 mm 1 mps 746 mmHg 85%
    18:00 +7°C° 0 mm 1 mps 746 mmHg 86%
    19:00 +7°C° 0 mm 1 mps 746 mmHg 86%
    20:00 +6°C° 0 mm 2 mps 746 mmHg 86%
    21:00 +5°C° 0 mm 2 mps 746 mmHg 85%
    22:00 +6°C° 0 mm 1 mps 747 mmHg 85%
    23:00 +5°C° 0 mm 1 mps 747 mmHg 85%

    21 September, Saturday

    Time Temperature Precipitation Wind Pressure Humidity
    00:00 +4°C° 0 mm 1 mps 747 mmHg 84%
    01:00 +4°C° 0 mm 1 mps 747 mmHg 84%
    02:00 +4°C° 0 mm 1 mps 747 mmHg 83%
    03:00 +4°C° 0 mm 1 mps 747 mmHg 83%
    04:00 +3°C° 0 mm 1 mps 747 mmHg 83%
    05:00 +3°C° 0 mm 1 mps 747 mmHg 84%
    06:00 +3°C° 0 mm 1 mps 747 mmHg 84%
    07:00 +4°C° 0 mm 1 mps 747 mmHg 79%
    08:00 +5°C° 0 mm 2 mps 747 mmHg 74%
    09:00 +7°C° 0 mm 2 mps 747 mmHg 69%
    10:00 +8°C° 0 mm 2 mps 747 mmHg 64%
    11:00 +8°C° 0 mm 2 mps 747 mmHg 60%
    12:00 +9°C° 0 mm 2 mps 747 mmHg 55%
    13:00 +9°C° 0.2 mm 3 mps 747 mmHg 55%
    14:00 +9°C° 0.2 mm 3 mps 747 mmHg 54%
    15:00 +9°C° 0.2 mm 3 mps 747 mmHg 53%
    16:00 +8°C° 0 mm 3 mps 747 mmHg 56%
    17:00 +7°C° 0 mm 3 mps 747 mmHg 59%
    18:00 +6°C° 0 mm 2 mps 747 mmHg 61%
    19:00 +5°C° 0 mm 2 mps 748 mmHg 63%
    20:00 +5°C° 0 mm 2 mps 748 mmHg 65%
    21:00 +4°C° 0 mm 2 mps 748 mmHg 68%
    22:00 +4°C° 0 mm 2 mps 748 mmHg 70%
    23:00 +3°C° 0 mm 2 mps 748 mmHg 73%
    Show more